Погода в Сандерленде

Великобритания     54°54′40″N   1°22′59″W
темп.,
°C
ветер,
м/с
пор.,
м/с
влажн.,
%
обл.,
%
осадки,
мм/ч
давл.,
гПа
погр.,
м
23 октября, сб
сб2301:00+7юз2682100 0.0 1022193
04:00+7ююз248399 0.0 1020124
07:00+8ююз388373 0.0 1020293
10:00+10ю4107798 0.0 1020722
13:00+12ююз51163100 0.0 10181115
16:00+13ююз51265100 0.0 10171197
19:00+11ююз61372100 0.0 10161014
22:00+11ююз61372100 0.0 1016868
24 октября, вс
вс2401:00+10ююз5127071 0.0 1015776
04:00+10ююз7156985 0.0 1012846
07:00+11ю71572100 0.0 1011882
10:00+12ю71474100 0.1 1011861
13:00+13ююз7147090 0.1 1010764
16:00+14ююз6126869 0.0 10081269
19:00+13ююз512700 0.0 1008983
22:00+12ююз5127216 0.0 1008960
25 октября, пн
пн2501:00+12юз5127557 0.1 10081194
04:00+11юз5107542 0.1 1008685
07:00+10юз4117490 0.1 1009886
10:00+11юз41069100 0.0 1010940
13:00+12зюз59587 0.0 10101271
16:00+12зюз49595 0.0 10101209
19:00+10зюз410725 0.0 1012792
22:00+9юз410735 0.0 1013607
26 октября, вт
вт2601:00+9юз3117892 0.0 1013559
04:00+9ююз31079100 0.0 1013470
07:00+11юз41176100 0.0 1013731
10:00+12ююз51276100 0.1 1012912
13:00+13юз71483100 0.1 1012838
16:00+15зюз41176100 0.0 1012938
19:00+14юз41281100 0.0 1012708
22:00+14юз6148295 0.0 1012755
27 октября, ср
ср2701:00+15юз71578100 0.0 1012916
04:00+15ююз61573100 0.0 1011938
07:00+14ююз51472100 0.0 1010891
10:00+16ююз61569100 0.0 1010976
13:00+17ююз71667100 0.0 10101232
16:00+16ююз81875100 0.1 10091213
19:00+15ююз51384100 0.7 1009982
22:00+15ююз61582100 0.8 10081047